Location: Wapato
(46.4478°N, 120.4212°W)
Time: 14:55:45
(UTC+00:00)

Explorer 7 - Pass Details

Date: 16 May 2026
Orbit: 426 x 534 km, 50.2° (Epoch: 8 June)

Event Time Altitude Azimuth Distance (km) Brightness Sun altitude
Rises 13:48:21 0° 253° (WSW) 2,445 9.5 12.2°
Reaches altitude 10° 13:50:27 10° 256° (WSW) 1,592 8.6 12.5°
Maximum altitude 13:54:02 72° 341° (NNW) 497 6.8 13.1°
Drops below altitude 10° 13:57:47 10° 66° (ENE) 1,662 11.6 13.7°
Sets 14:00:01 0° 69° (ENE) 2,565 12.1 14.1°
